User: anonymous   Login
Location: Unspecified
(0.0000°N, 0.0000°E)
Time: 21:40:00
(UTC+00:00)
Language:

EGRS 8 - Orbit

View from above orbital plane
View from above orbital plane
View from above satellite
View from above satellite

Ground track
Ground track

The orbit data is extracted from the following two-line orbital elements,

1  2520U 66089B   18114.23393146 +.00000007 +00000-0 +22933-2 0  9992
2  2520 089.6836 057.3552 0016247 041.3736 318.8343 08.58903601126438
Epoch (UTC): 24 April 2018 05:36:51
Eccentricity: 0.0016247
inclination: 89.6836°
perigee height: 3677 km
apogee height: 3710 km
right ascension of ascending node: 57.3552°
argument of perigee: 41.3736°
revolutions per day: 8.58903601
mean anomaly at epoch: 318.8343°
orbit number at epoch: 12643

The dashed part of the orbit path shows where the satellite is in the earth's shadow,  

DLR